This is the latest recevied weather packets stored in our database for station/object N5JXS. If no packets are shown the sender has not sent any weather packets the latest 10 day(s).
| Time | Temp. | Humidity | Pressure | Rain* | Wind** | Luminosity | Snow |
|---|---|---|---|---|---|---|---|
| 1788573853 | 23.89° C | 35% | 1024.2 hPa | 0 mm | - | 0 W/m² | - |
| 1788573553 | 23.89° C | 35% | 1024.1 hPa | 0 mm | - | 0 W/m² | - |
| 1788573251 | 23.89° C | 34% | 1023.9 hPa | 0 mm | - | 0 W/m² | - |
| 1788572950 | 23.89° C | 34% | 1024 hPa | 0 mm | - | 0 W/m² | - |
| 1788572646 | 24.44° C | 33% | 1023.9 hPa | 0 mm | - | 0 W/m² | - |
| 1788572341 | 24.44° C | 32% | 1024 hPa | 0 mm | - | 0 W/m² | - |
| 1788572038 | 25° C | 31% | 1024 hPa | 0 mm | - | 0 W/m² | - |
| 1788571738 | 25° C | 32% | 1024 hPa | 0 mm | - | 0 W/m² | - |
| 1788571433 | 25° C | 31% | 1024.1 hPa | 0 mm | - | 0 W/m² | - |
| 1788571130 | 25° C | 31% | 1024 hPa | 0 mm | - | 1 W/m² | - |
| 1788570825 | 25.56° C | 31% | 1023.7 hPa | 0 mm | - | 2 W/m² | - |
| 1788570521 | 25.56° C | 31% | 1023.7 hPa | 0 mm | - | 3 W/m² | - |
| 1788570216 | 25.56° C | 30% | 1023.9 hPa | 0 mm | - | 5 W/m² | - |
| 1788569912 | 25.56° C | 30% | 1023.9 hPa | 0 mm | - | 10 W/m² | - |
| 1788569608 | 26.11° C | 30% | 1023.7 hPa | 0 mm | - | 14 W/m² | - |
| 1788569302 | 26.11° C | 30% | 1023.7 hPa | 0 mm | - | 15 W/m² | - |
| 1788568997 | 26.67° C | 29% | 1023.4 hPa | 0 mm | - | 22 W/m² | - |
| 1788568692 | 26.67° C | 28% | 1023.7 hPa | 0 mm | - | 21 W/m² | - |
| 1788568389 | 27.22° C | 27% | 1023.6 hPa | 0 mm | - | 20 W/m² | - |
| 1788568089 | 27.78° C | 27% | 1023.6 hPa | 0 mm | - | 34 W/m² | - |
| 1788567783 | 28.33° C | 27% | 1023.5 hPa | 0 mm | - | 37 W/m² | - |
| 1788567478 | 27.78° C | 27% | 1023.5 hPa | 0 mm | - | 61 W/m² | - |
| 1788567178 | 27.78° C | 27% | 1023.4 hPa | 0 mm | - | 60 W/m² | - |
| 1788566873 | 27.78° C | 27% | 1023.5 hPa | 0 mm | - | 44 W/m² | - |
| 1788566569 | 27.78° C | 27% | 1023.5 hPa | 0 mm | - | 68 W/m² | - |
* Rain latest hour (hover to see other rain measurements)
** Current wind speed in m/s (hover to see current wind gust speed)